User: anonymous
Location: Darlington Observatory
(36.4817°N, 105.8156°W)
Time: 21:42:07
(UTC-06:00)
Language:

NOSS 3-3 (A) - Orbit

View from above orbital plane
View from above orbital plane
View from above satellite
View from above satellite

Ground track
Ground track

The orbit data is extracted from the following two-line orbital elements,

1 28537U 05004A   14173.88434022 0.00000000  00000-0  00000-0 0    04
2 28537  63.4307  85.7931 0169000 359.4931   0.5069 13.40648277    05
Epoch (UTC): 22 June 2014 21:13:26
Eccentricity: 0.0169000
inclination: 63.4307°
perigee height: 980 km
apogee height: 1233 km
right ascension of ascending node: 85.7931°
argument of perigee: 359.4931°
revolutions per day: 13.40648277
mean anomaly at epoch: 0.5069°
orbit number at epoch: 0

The dashed part of the orbit path shows where the satellite is in the earth's shadow,  

DLR